Date,TemperatureHighF,TemperatureAvgF,TemperatureLowF,DewpointHighF,DewpointAvgF,DewpointLowF,HumidityHigh,HumidityAvg,HumidityLow,PressureMaxIn,PressureMinIn,WindSpeedMaxMPH,WindSpeedAvgMPH,GustSpeedMaxMPH,PrecipitationSumIn
2013-10-9,58,57,57,57,56,56,97,96,96,29.94,29.93,0,0,0,0.00
2013-10-10,81,64,51,60,56,51,99,80,45,29.94,29.82,9,1,0,0.00
2013-10-11,81,64,50,60,55,50,99,78,38,29.88,29.77,5,1,0,0.00
2013-10-12,83,65,51,61,57,50,99,80,44,29.90,29.80,5,0,0,0.00
2013-10-13,84,67,53,64,60,53,99,81,45,30.00,29.88,4,0,0,0.00
2013-10-14,77,66,58,63,61,58,99,85,57,30.02,29.91,5,1,0,0.00
2013-10-15,70,65,61,62,60,58,99,84,68,29.97,29.86,3,0,0,0.00
2013-10-16,76,64,55,64,60,55,99,86,58,29.88,29.77,3,0,0,0.00
2013-10-17,69,65,60,69,65,59,99,98,94,29.78,29.69,3,0,0,0.33
2013-10-18,69,57,49,59,53,49,99,88,50,29.84,29.73,4,1,0,0.01
2013-10-19,62,56,50,58,54,50,99,94,77,29.79,29.72,4,0,0,0.02
2013-10-20,68,52,40,51,44,38,99,79,34,29.87,29.79,3,0,0,0.00
2013-10-21,69,53,39,56,48,38,99,86,51,29.94,29.81,3,0,0,0.00
2013-10-22,69,58,50,58,54,48,99,89,46,29.84,29.65,3,0,0,0.02
2013-10-23,61,51,39,49,42,33,99,74,40,29.89,29.64,9,2,0,0.01
2013-10-24,62,45,33,43,37,33,99,78,36,30.00,29.88,4,0,0,0.00
2013-10-25,57,43,33,42,31,25,97,66,31,30.19,30.00,5,1,0,0.00
2013-10-26,59,42,28,41,34,28,99,79,37,30.14,29.96,4,1,0,0.00
2013-10-27,67,51,37,54,46,36,99,85,52,29.97,29.90,3,0,0,0.00
2013-10-28,66,56,51,59,54,51,99,93,67,30.07,29.92,3,0,0,0.06
2013-10-29,75,59,49,60,55,49,99,88,53,30.14,30.03,3,0,0,0.00
2013-10-30,77,60,50,60,55,49,99,85,47,30.11,29.96,4,0,0,0.00
2013-10-31,73,64,54,62,58,52,99,82,65,29.97,29.66,7,1,0,0.00
2013-11-1,76,64,49,62,56,49,99,78,45,29.67,29.52,8,1,0,0.08
2013-11-2,69,52,41,50,43,37,99,75,35,29.87,29.62,6,1,0,0.00
2013-11-3,67,48,35,43,38,34,99,76,31,30.10,29.86,5,0,0,0.00
2013-11-4,63,47,36,40,37,34,99,73,37,30.23,30.10,6,1,0,0.00
2013-11-5,65,50,40,44,36,32,88,61,34,30.26,30.12,6,1,0,0.00
2013-11-6,73,58,49,57,52,44,98,82,54,30.13,29.91,5,1,0,0.00
2013-11-7,59,53,37,59,47,34,99,83,53,30.02,29.84,7,1,0,0.06
2013-11-8,62,46,34,35,31,25,94,62,24,30.13,30.01,5,0,0,0.00
2013-11-9,59,45,32,43,36,31,99,74,38,30.16,30.00,3,0,0,0.00
2013-11-10,72,52,41,43,41,38,99,71,34,30.08,29.97,5,1,0,0.00
2013-11-11,66,47,32,40,35,29,99,70,28,30.11,29.96,4,1,0,0.00
2013-11-12,62,42,29,42,31,15,99,69,38,30.25,29.93,9,2,0,0.00
2013-11-13,50,36,25,24,17,9,91,51,20,30.38,30.25,5,1,0,0.00
2013-11-14,65,37,21,30,22,14,99,65,16,30.29,30.11,5,1,0,0.00
2013-11-15,48,43,31,46,38,25,99,82,49,30.12,29.95,3,0,0,0.10
2013-11-16,61,53,45,55,52,45,99,94,79,30.03,29.93,4,1,0,0.00
2013-11-17,65,60,55,65,59,54,99,97,92,29.97,29.72,5,0,0,0.05
2013-11-18,70,61,48,66,46,30,99,64,28,29.88,29.70,7,2,0,0.03
2013-11-19,62,48,36,37,31,27,79,54,33,29.97,29.84,3,0,0,0.00
2013-11-20,57,46,37,32,29,26,67,52,39,30.14,29.97,9,2,0,0.00
2013-11-21,55,50,46,45,40,32,86,70,53,30.21,30.11,6,2,0,0.00
2013-11-22,63,55,48,57,52,46,99,91,77,30.16,29.98,4,0,0,0.05
2013-11-23,57,50,37,57,44,27,99,81,59,30.07,29.94,7,2,0,0.01
2013-11-24,51,35,26,26,18,12,80,51,23,30.27,30.07,7,1,0,0.00
2013-11-25,44,35,25,27,15,7,84,46,29,30.27,30.00,8,2,0,0.00
2013-11-26,46,38,32,46,37,25,99,98,65,29.99,29.44,6,2,0,1.02
2013-11-27,41,33,25,40,26,16,99,77,51,30.06,29.45,11,4,0,0.13
2013-11-28,52,31,19,24,19,16,97,67,26,30.28,30.06,4,0,0,0.00
2013-11-29,66,37,20,31,25,15,99,71,17,30.33,30.22,3,0,0,0.01
2013-11-30,53,38,28,29,26,23,99,66,33,30.37,30.13,10,1,0,0.00
2013-12-1,58,45,35,39,33,26,92,64,46,30.14,29.82,4,0,0,0.00
2013-12-2,49,46,40,49,45,38,99,97,90,29.82,29.62,1,0,0,0.31
2013-12-3,56,51,48,55,51,48,99,99,95,29.70,29.63,4,0,0,0.33
2013-12-4,71,59,52,64,57,52,99,94,69,29.82,29.70,6,0,0,0.01
2013-12-5,71,65,61,67,64,61,99,97,86,29.87,29.79,6,1,0,1.15
2013-12-6,74,67,53,67,64,53,99,93,75,29.87,29.77,9,2,0,0.26
2013-12-7,53,42,39,52,41,38,99,94,82,30.10,29.87,7,1,0,0.00
2013-12-8,47,42,39,46,42,38,99,99,99,30.10,30.00,8,3,0,0.25
2013-12-9,47,42,38,46,42,37,99,99,99,29.99,29.81,5,0,0,1.05
2013-12-10,48,42,27,47,38,27,99,88,50,30.14,29.74,14,2,0,0.12
2013-12-11,58,36,22,34,28,22,99,78,29,30.24,30.12,3,0,0,0.00
2013-12-12,49,34,25,31,22,15,99,64,31,30.26,30.15,4,1,0,0.00
2013-12-13,62,38,21,31,23,14,99,60,17,30.19,29.95,6,0,0,0.00
2013-12-14,47,45,42,47,41,28,99,88,53,29.96,29.63,5,1,0,0.60
2013-12-15,48,38,30,48,34,27,99,85,71,29.99,29.63,11,3,0,0.00
2013-12-16,59,36,26,32,28,26,99,77,30,30.06,29.96,9,1,0,0.00
2013-12-17,64,43,26,36,31,26,99,69,31,30.03,29.87,12,2,0,0.00
2013-12-18,57,40,29,28,22,16,87,54,21,30.15,29.99,7,1,0,0.00
2013-12-19,46,28,24,32,26,24,99,93,58,30.13,29.97,0,0,0,0.00
2013-12-20,62,46,31,49,40,30,99,84,58,30.03,29.91,4,0,0,0.00
2013-12-21,68,59,46,64,57,46,99,93,84,29.91,29.72,7,1,0,0.00
2013-12-22,68,59,54,65,58,54,99,96,86,29.87,29.68,7,1,0,2.56
2013-12-23,55,46,33,54,43,29,99,91,82,30.07,29.83,10,2,0,0.00
2013-12-24,42,32,24,29,23,18,91,72,42,30.22,30.06,8,2,0,0.00
2013-12-25,46,31,20,24,20,14,99,69,34,30.28,30.14,7,1,0,0.00
2013-12-26,59,38,26,30,26,22,97,67,30,30.20,30.07,4,0,0,0.00
2013-12-27,58,35,23,31,26,23,99,77,30,30.27,30.12,5,0,0,0.00
2013-12-28,45,36,26,38,32,26,99,90,53,30.20,29.78,5,1,0,0.66
2013-12-29,47,42,38,44,41,37,99,96,87,29.84,29.65,8,1,0,0.16
2013-12-30,48,41,34,42,38,34,99,92,77,30.01,29.83,3,0,0,0.00
2013-12-31,45,38,30,35,29,22,94,74,41,30.20,30.00,5,1,0,0.00
2014-1-1,49,39,29,37,31,27,99,75,49,30.16,29.91,5,0,0,0.00
2014-1-2,49,40,24,49,37,14,99,89,66,29.93,29.56,10,2,0,0.16